Theta_e
314 314 314 314 315 316 316 317 317 316 316 316 316 316 315 313 313 316 318 319 318 317 316 317 317 317 318 317 320 323 323 323 322 323 322 322 332 336 336 339 342 341 340 340 340 340 339 339 338 337 335 335 335 335 335 335 335 335 335 335 334 334 335 334 333 331 330 329 326 327 328 328 330 329 329 330 329 330 329 327 328 326 321 319 319 321
314 314 315 315 316 316 317 318 318 317 317 316 316 316 315 314 314 317 319 318 319 318 316 318 317 317 318 318 319 322 323 324 322 323 323 322 325 330 334 336 339 341 341 340 339 339 339 338 338 337 334 335 336 335 335 334 333 333 334 335 335 334 333 333 331 329 328 324 322 325 326 326 328 328 329 329 328 326 321 320 323 323 321 320 317 318
314 314 315 316 317 318 318 319 318 317 317 317 318 316 315 316 316 317 319 319 318 317 317 318 317 316 319 318 319 321 322 324 323 323 323 322 322 324 332 334 336 341 341 339 339 337 337 338 337 336 334 334 335 334 334 334 333 333 334 335 335 333 329 328 328 325 323 321 322 326 327 327 327 327 330 328 325 320 314 315 318 319 323 324 320 319
314 315 316 317 318 318 318 319 319 318 318 318 318 316 315 316 315 314 317 320 319 318 319 318 317 318 319 319 320 320 322 323 322 323 322 323 323 324 332 334 335 339 340 338 338 335 336 338 337 336 334 334 334 333 333 333 334 334 334 335 334 330 326 325 326 323 322 323 327 329 329 328 328 329 329 325 322 322 321 322 321 318 323 327 324 324
315 317 318 317 317 318 318 319 320 318 318 318 319 317 316 317 316 315 318 320 319 319 320 319 317 317 318 319 319 320 321 321 323 323 323 324 322 326 333 334 336 338 337 338 335 333 337 339 338 336 334 334 334 332 332 333 334 335 334 332 330 325 323 325 326 324 324 327 328 329 329 330 330 328 324 322 322 323 324 323 319 318 324 326 324 326
317 319 319 317 317 318 318 319 319 318 317 316 318 318 317 317 317 318 318 318 316 317 319 319 314 315 317 319 319 320 321 321 323 324 324 323 323 331 336 336 337 336 336 337 334 334 339 339 338 336 333 334 334 333 334 333 331 332 330 326 324 323 322 325 326 324 325 326 325 328 330 329 327 322 321 323 322 323 324 322 320 322 326 326 325 326
317 318 318 317 318 318 318 318 318 318 316 314 316 318 317 317 317 317 318 317 315 315 320 320 315 314 316 318 320 321 320 320 325 325 325 324 324 332 336 337 337 337 338 336 334 335 339 339 337 335 333 333 334 333 334 332 328 328 326 322 321 321 323 324 323 322 322 322 319 320 324 324 321 321 324 325 323 323 324 322 322 322 323 325 325 324
317 317 317 318 318 317 316 316 316 317 315 314 316 318 317 316 316 318 317 316 316 317 320 320 318 314 314 317 320 321 319 322 325 325 326 326 326 332 336 336 335 336 337 334 331 333 337 338 334 334 333 334 334 333 333 331 328 329 326 322 320 320 322 322 321 320 320 319 313 313 320 323 323 326 326 325 325 324 321 319 320 321 323 325 325 324
318 316 317 317 317 317 316 316 316 316 315 315 316 318 317 316 316 317 317 317 317 318 316 317 318 316 314 316 320 320 319 323 325 326 327 326 328 333 333 334 333 333 333 330 329 333 335 333 331 333 334 333 333 333 332 331 330 329 326 322 320 320 321 320 320 320 319 317 313 314 323 327 327 328 325 321 322 320 317 319 322 324 325 325 324 324
317 317 317 317 316 315 316 316 316 316 316 317 317 317 318 317 316 317 318 316 317 318 315 316 318 317 315 316 319 321 320 323 326 326 327 325 329 333 332 332 332 331 331 331 332 334 333 330 330 332 331 332 334 333 332 331 330 328 325 322 320 319 319 320 320 320 318 316 315 319 327 328 327 327 321 318 317 315 319 324 325 324 324 324 324 324
317 317 316 316 316 316 316 316 316 316 317 317 317 317 317 318 317 317 317 316 316 315 315 316 318 318 316 316 318 321 322 325 326 324 325 326 329 333 333 331 332 333 334 334 333 333 333 331 331 331 331 332 333 333 332 330 327 325 324 322 321 319 319 320 321 319 316 315 317 323 327 328 328 324 318 318 315 313 319 324 323 322 323 324 324 322
315 316 316 316 317 316 316 316 317 318 317 317 317 317 317 317 316 315 315 315 315 315 315 315 317 318 316 317 319 321 324 324 324 324 325 328 330 331 331 331 332 333 333 334 333 333 332 331 332 332 332 332 331 330 331 328 326 325 323 322 321 320 321 321 321 319 317 318 321 324 326 328 326 318 314 317 313 312 318 322 322 324 325 324 322 318
314 315 315 317 317 316 316 316 317 318 316 317 316 316 315 315 315 314 314 315 315 315 315 317 318 317 316 320 323 323 324 323 324 326 326 328 331 331 331 333 333 332 331 332 332 333 333 331 332 332 329 329 329 329 328 326 326 325 324 323 320 320 321 320 320 320 319 322 324 323 324 325 320 313 311 313 312 315 320 322 324 325 324 323 321 317
313 315 315 316 316 315 316 316 316 316 316 316 315 314 315 315 316 316 315 314 315 314 316 318 318 317 318 322 324 322 325 325 326 327 327 329 331 331 332 334 334 332 331 330 330 332 334 332 332 331 328 328 329 328 326 325 325 325 324 324 321 321 322 320 320 321 320 321 322 321 318 316 313 309 310 312 315 319 322 322 324 324 323 323 321 315
313 313 315 315 315 316 316 316 317 317 315 315 316 316 316 316 316 316 315 314 315 314 316 319 318 318 320 324 325 324 325 326 327 328 328 328 330 331 332 332 333 332 330 329 328 329 332 330 329 330 329 329 329 329 327 324 324 324 323 323 323 323 323 320 320 321 321 320 320 319 314 310 309 309 311 317 319 321 323 321 322 324 324 323 320 313
312 313 316 316 316 316 316 316 317 317 316 316 316 315 315 317 317 316 316 317 316 315 315 317 318 320 323 325 324 324 325 325 326 327 328 327 328 330 329 329 332 331 329 329 327 328 330 328 327 329 331 331 330 329 328 325 324 323 323 324 326 324 323 321 321 322 323 320 318 320 315 311 311 311 314 320 320 320 321 321 322 323 323 322 318 312
313 314 317 316 316 317 316 317 316 316 317 318 316 313 316 319 318 317 318 318 317 315 315 318 321 322 324 324 324 324 324 323 323 326 328 328 328 329 328 330 332 331 330 329 329 329 328 328 329 330 331 332 331 330 330 328 327 326 326 327 328 326 323 322 322 323 323 320 318 321 319 316 316 313 315 320 318 316 319 321 323 323 322 321 317 310
315 315 318 316 316 317 317 317 316 316 318 317 315 315 317 319 319 318 317 317 317 316 315 319 323 324 322 322 324 324 323 323 324 326 327 327 328 329 331 331 331 331 329 328 328 327 327 327 328 330 330 330 331 330 329 328 327 328 328 327 327 327 324 322 323 323 323 321 321 321 320 321 320 315 316 317 312 311 316 321 323 322 321 319 315 309
316 315 317 318 317 317 317 317 316 317 317 317 317 318 318 318 318 317 316 317 318 318 316 315 318 322 321 320 323 324 323 326 327 327 326 326 327 329 330 329 329 330 328 326 327 327 327 327 328 328 329 329 330 328 328 327 327 328 327 326 326 326 324 323 323 323 322 323 324 321 321 324 324 318 315 313 309 308 312 318 321 321 320 318 313 308
318 316 316 318 318 317 317 316 314 315 316 317 318 317 319 319 318 317 318 318 316 317 318 314 313 322 325 323 324 325 327 328 327 327 326 326 328 329 330 329 329 329 328 328 328 328 327 326 327 327 326 328 329 328 327 327 328 327 326 325 325 324 323 323 323 324 324 323 323 322 324 326 325 321 316 311 308 308 310 316 320 320 319 316 312 308
318 318 317 318 318 317 317 316 315 315 316 316 316 315 317 318 317 318 319 317 314 315 316 314 317 326 328 326 325 327 328 328 327 328 327 327 328 327 328 328 327 328 329 329 330 329 327 326 326 325 325 328 329 328 326 326 326 326 326 326 325 323 324 324 324 324 325 323 322 323 326 326 324 323 319 313 309 308 311 316 318 317 314 313 312 308
317 318 317 317 317 316 316 316 316 316 316 316 315 315 316 317 316 317 317 316 314 315 315 315 320 327 327 325 327 327 327 328 328 328 327 327 327 326 326 327 327 329 329 329 329 329 329 328 327 326 326 327 328 328 328 327 326 326 326 326 325 324 324 324 325 325 325 324 322 322 324 324 323 324 322 318 311 309 312 315 314 312 310 311 312 311
319 318 318 317 316 316 317 317 318 317 317 317 316 317 316 316 316 315 317 320 318 314 315 315 318 325 326 325 327 327 327 328 328 328 328 327 326 326 326 326 327 329 329 328 328 328 328 328 327 327 326 326 327 328 328 328 326 326 327 327 325 325 324 323 324 326 327 325 321 321 323 322 323 324 324 322 316 311 311 311 311 310 308 310 311 312
319 318 317 317 318 319 318 317 318 316 316 316 316 317 317 316 317 316 318 323 319 316 316 315 318 324 327 325 326 326 326 326 327 328 328 327 327 327 326 325 325 327 328 327 327 327 327 326 326 326 326 326 327 327 327 327 327 328 328 328 327 326 325 325 324 325 327 325 322 322 323 322 323 324 325 324 319 315 312 310 310 309 310 314 314 314
318 317 316 317 319 320 318 317 319 319 318 316 316 317 317 316 318 319 319 319 316 315 315 315 319 324 326 325 325 325 324 325 325 326 327 327 327 327 326 325 325 327 328 327 326 327 326 326 326 326 326 327 327 327 326 326 327 328 328 328 328 328 327 327 326 326 326 325 323 324 325 324 324 325 326 324 320 319 317 313 311 310 311 318 319 316
317 317 317 317 317 319 319 319 319 318 317 317 317 317 318 316 317 320 321 319 317 316 316 317 321 324 325 324 324 324 324 325 325 325 326 326 327 326 326 325 326 327 327 327 327 326 326 326 327 328 327 327 326 326 326 326 326 327 327 328 329 328 327 325 324 325 327 327 325 325 324 323 323 325 327 325 321 322 320 317 317 314 312 318 320 318
318 318 318 317 317 319 319 318 317 317 317 317 317 318 319 320 319 318 319 319 318 319 321 323 324 324 325 324 325 325 325 324 324 325 324 324 324 325 326 325 326 327 326 326 326 325 325 325 326 328 327 326 325 324 323 324 326 327 327 328 328 327 327 327 325 325 327 327 327 327 326 325 325 326 327 325 323 323 321 319 319 317 315 319 320 318
318 318 319 318 317 318 318 317 316 316 316 316 316 318 318 321 323 321 317 317 318 318 321 325 327 326 325 325 325 325 324 323 324 324 323 323 322 323 325 325 326 325 325 325 325 324 325 325 324 325 325 325 325 324 322 323 325 326 326 327 327 327 327 327 327 326 326 326 327 327 327 327 327 327 326 326 325 323 321 320 320 318 316 319 320 319
317 317 318 318 317 316 316 316 316 316 316 315 316 318 318 321 323 324 321 319 318 317 321 325 326 326 326 325 324 324 324 324 325 324 322 322 323 324 324 324 324 324 324 323 323 323 323 323 323 324 324 325 324 324 324 324 324 325 325 326 326 326 327 326 326 326 326 326 326 326 326 326 327 327 326 326 324 321 320 321 321 319 317 317 318 319
318 317 318 318 317 316 316 316 316 316 316 316 315 317 318 320 321 323 324 323 322 322 324 326 326 325 325 323 323 323 324 324 323 321 321 322 322 323 322 322 322 322 322 321 321 321 321 321 322 321 322 323 323 323 324 324 324 324 324 325 325 325 325 325 325 325 325 326 326 326 326 326 326 326 326 326 324 323 322 323 323 321 319 319 318 319
319 318 319 319 317 316 316 316 316 315 315 316 316 316 317 318 318 321 322 322 324 325 325 324 323 322 322 320 317 316 317 318 315 314 315 318 319 319 318 318 318 318 318 317 317 317 317 317 317 318 318 320 321 321 321 322 322 322 322 323 323 324 324 324 324 324 324 324 324 325 326 325 325 325 326 325 325 325 324 324 324 323 321 321 320 319
320 317 318 319 317 316 316 316 316 315 315 316 316 316 317 317 317 319 320 320 322 324 324 322 322 320 317 314 311 310 311 312 311 310 310 311 312 312 311 310 310 310 310 310 310 311 311 311 312 312 313 314 315 317 317 318 318 318 318 319 320 321 322 322 323 322 322 322 322 323 324 324 324 324 325 325 324 324 324 324 324 323 323 323 322 321
319 318 318 317 316 315 316 316 315 315 315 316 317 317 318 317 316 317 317 318 320 322 322 321 320 318 313 310 308 308 308 308 309 308 308 307 307 307 307 307 307 306 306 307 307 307 307 308 308 309 309 310 311 312 313 313 314 314 315 316 317 318 318 320 321 320 320 321 321 321 321 321 322 322 323 324 323 323 324 323 323 323 323 322 322 321
319 318 319 319 317 316 317 316 315 316 317 317 317 317 317 316 316 316 316 316 318 319 319 319 318 315 312 309 307 306 305 305 306 306 306 306 306 305 305 306 306 307 307 306 306 306 306 306 306 307 307 308 308 309 310 311 311 312 313 313 314 315 315 316 317 316 317 317 317 317 318 319 319 320 320 322 322 322 323 323 323 323 322 321 320 320
318 317 318 319 318 317 317 317 318 318 317 316 315 316 316 315 315 316 315 315 316 317 317 317 316 313 310 307 306 305 303 303 304 304 305 306 306 305 305 305 306 307 308 307 307 307 306 306 306 306 307 307 307 308 308 309 309 310 311 311 312 313 314 314 314 314 314 314 314 314 314 315 316 316 316 318 319 319 320 321 322 321 320 319 319 318
317 316 316 316 316 317 317 318 318 318 316 315 314 315 315 315 314 314 314 315 315 315 316 315 312 309 308 306 304 304 303 303 303 303 303 304 305 305 304 303 304 304 305 305 306 306 307 307 307 306 306 307 308 308 308 308 308 308 308 309 310 311 312 312 312 312 312 313 313 313 313 313 313 313 313 314 315 315 316 318 319 319 319 318 317 316
315 316 316 316 316 316 317 317 317 316 315 315 314 314 315 314 314 314 315 315 314 313 312 311 309 307 307 305 305 305 306 306 305 303 303 304 304 304 303 303 303 303 303 303 303 304 304 305 306 306 306 307 307 308 308 307 308 308 308 308 308 309 309 309 309 309 309 310 310 311 312 312 313 313 313 313 313 314 313 314 316 317 318 318 318 317
315 315 315 315 315 315 316 316 316 317 316 314 312 312 312 313 314 314 315 315 313 311 311 309 308 307 307 306 306 307 308 308 307 305 304 304 304 304 304 303 303 304 304 303 303 303 302 303 304 304 304 305 306 307 308 307 307 308 308 308 308 308 308 308 308 307 307 308 308 308 309 310 311 312 312 313 313 313 313 313 313 314 315 316 317 317
314 315 314 314 314 314 315 315 315 315 314 312 310 309 309 310 312 313 314 314 313 311 310 309 308 308 308 307 308 309 309 308 307 306 305 304 304 304 303 303 303 303 302 302 302 302 302 302 302 302 301 301 302 303 305 306 306 307 308 308 308 308 307 307 307 307 306 306 307 307 307 308 309 310 311 312 312 313 313 313 313 313 313 314 315 315
314 314 313 313 313 313 314 314 313 313 312 311 310 309 308 309 311 313 314 313 312 311 310 309 309 308 308 308 309 309 309 308 307 306 305 305 304 304 303 303 303 302 301 300 300 300 301 301 301 301 300 299 299 299 300 301 301 302 303 304 305 305 305 305 306 306 306 305 305 305 305 306 307 308 308 310 310 311 312 312 312 313 313 313 314 314
312 311 311 311 311 312 313 313 312 311 310 309 309 308 308 309 311 313 313 311 310 311 310 309 309 309 309 308 308 308 308 307 306 306 305 304 304 303 303 302 302 302 301 300 299 299 300 301 301 301 301 300 299 299 299 298 297 297 298 299 300 302 303 303 303 303 304 304 303 302 303 304 306 307 307 307 307 308 308 309 310 311 312 313 313 313
311 310 310 311 310 311 312 312 311 310 308 308 309 308 308 310 311 311 310 310 310 310 309 308 307 307 307 307 307 306 306 306 305 305 304 303 303 302 302 302 301 301 301 300 299 298 299 301 302 301 301 300 300 299 298 297 297 298 298 298 299 301 301 299 299 299 299 300 301 301 301 302 302 303 303 303 303 304 305 306 307 308 310 312 313 313
310 309 310 310 310 310 311 312 312 310 308 307 309 308 308 309 309 308 308 309 309 308 308 308 307 306 306 305 305 305 305 305 304 304 303 302 302 301 301 301 301 301 300 301 300 298 298 301 301 300 300 301 300 299 298 297 298 299 298 298 299 299 298 297 297 297 297 298 299 299 299 299 299 300 300 300 301 301 302 303 304 305 306 308 310 311
309 309 310 309 309 309 310 310 310 309 307 307 308 308 307 308 307 307 308 308 307 307 307 307 306 306 306 305 304 304 303 303 303 302 302 301 301 301 300 299 299 299 299 300 299 297 298 300 300 300 301 301 300 299 299 299 299 299 298 298 298 298 298 298 298 298 298 298 297 297 297 298 299 300 301 302 302 302 302 303 304 304 305 306 308 309
308 309 309 308 308 309 309 308 308 307 307 307 307 307 306 306 306 306 306 306 306 307 306 305 305 305 305 304 304 303 303 302 302 302 302 301 301 300 300 300 300 299 300 300 298 297 299 300 300 300 301 300 300 300 300 300 300 300 300 300 300 299 299 300 300 300 300 300 299 299 299 299 299 300 301 301 302 302 303 303 304 304 305 306 307 308
308 307 308 308 307 307 308 307 307 307 306 306 306 305 305 305 305 305 304 304 305 304 304 303 303 303 304 304 303 302 302 302 302 301 301 301 301 301 301 301 301 300 300 300 299 298 299 300 300 300 300 300 300 300 299 299 300 300 300 299 299 299 299 299 300 300 300 300 300 300 300 300 300 300 300 300 301 302 302 303 303 303 304 304 305 306
307 306 307 308 307 307 307 306 306 306 305 305 305 305 304 304 304 303 303 303 302 302 302 302 302 302 302 303 302 302 301 301 301 301 301 301 301 301 301 301 301 300 300 300 299 299 299 300 299 299 299 299 299 299 299 299 299 299 299 299 299 299 299 299 299 299 299 299 299 299 299 300 300 300 300 300 300 301 301 302 302 302 303 303 303 304
305 305 305 306 306 306 306 306 306 305 305 305 304 304 304 303 302 302 302 301 301 301 301 301 301 301 301 301 301 301 301 301 301 301 301 301 301 300 300 300 300 300 300 299 299 299 299 299 299 299 299 299 299 299 299 299 299 299 299 299 299 299 299 299 299 298 298 298 298 299 299 299 299 299 299 300 300 300 300 300 301 301 302 302 303 303
305 304 304 306 306 306 306 305 305 305 304 304 304 303 303 303 302 302 302 301 301 301 300 300 300 300 300 301 301 301 301 300 300 300 300 301 300 300 300 300 300 300 299 299 299 299 299 299 299 299 299 299 299 299 299 299 299 299 299 298 298 298 298 298 298 298 298 298 298 298 298 298 298 299 299 299 299 299 300 300 300 300 301 301 302 303
305 305 304 305 305 305 305 305 305 305 304 304 304 303 303 302 302 302 302 302 301 301 301 300 299 299 299 300 300 301 301 300 300 300 300 300 300 300 300 300 300 300 299 299 299 299 299 299 298 298 298 299 299 299 299 299 299 298 298 298 297 297 297 297 297 297 297 297 297 298 298 297 297 297 298 298 298 298 299 299 300 300 300 300 301 302
304 304 304 304 304 305 305 305 304 304 304 304 303 303 303 302 302 302 301 301 301 301 301 301 300 300 300 300 299 299 300 299 299 299 299 299 299 299 299 299 299 299 299 299 299 299 299 298 298 298 298 299 299 299 299 298 298 298 298 297 297 297 296 296 296 297 297 297 297 297 297 297 297 297 297 297 297 297 297 298 299 300 300 300 300 300
Wind_Speed
12 7 8 9 10 12 13 14 15 17 19 14 12 12 12 12 11 15 15 12 17 13 13 14 15 15 14 15 13 11 13 13 13 12 15 15 22 24 22 19 16 16 17 17 16 16 13 12 15 14 14 17 19 21 20 20 20 18 17 17 15 14 13 14 15 14 15 14 13 12 10 10 8 6 8 7 5 6 5 5 4 4 3 3 4 4
11 8 9 12 13 14 14 14 15 17 17 14 13 13 11 12 11 14 14 12 15 9 10 15 14 14 13 13 12 14 17 14 13 11 13 16 17 19 22 23 19 17 17 17 15 14 12 12 16 15 15 18 21 22 20 19 20 18 16 15 14 14 13 14 15 15 14 13 12 11 9 9 6 5 5 5 7 6 5 6 6 5 5 3 5 5
9 9 12 15 13 13 14 12 13 15 14 11 9 12 10 8 10 12 14 13 12 7 8 13 13 11 12 14 13 13 14 16 16 15 15 17 17 17 20 26 22 18 18 16 14 14 15 16 17 16 17 20 21 22 22 19 19 18 16 15 14 14 15 16 17 15 15 13 12 11 10 8 5 6 6 5 4 3 2 4 4 5 7 6 6 6
7 10 14 15 13 14 13 7 7 10 8 8 8 8 9 7 10 7 6 7 8 4 6 8 9 9 11 13 12 13 13 16 18 18 18 18 17 16 19 28 24 19 18 16 15 18 20 20 19 19 19 20 21 22 22 19 19 18 16 15 15 17 18 19 18 16 15 15 15 13 9 8 7 9 9 5 4 4 4 4 2 4 7 7 7 7
10 12 13 15 16 15 10 5 6 6 5 9 10 10 9 10 11 6 7 7 7 6 5 6 8 6 10 13 9 11 16 14 17 17 17 17 18 13 20 27 21 18 19 17 18 22 23 22 22 20 20 21 21 22 21 19 18 17 16 17 18 20 20 20 19 17 16 16 17 14 9 9 9 9 7 5 4 5 3 2 1 3 5 5 7 8
12 10 8 14 15 10 8 8 10 8 6 8 11 14 15 15 14 10 8 7 4 5 7 6 8 6 9 11 9 10 13 11 12 14 14 16 17 15 24 23 17 18 21 19 20 24 25 25 23 22 21 20 21 22 20 18 17 14 16 19 20 22 22 20 19 18 16 15 15 12 8 7 6 5 5 4 3 4 2 2 1 3 4 5 6 5
9 9 8 10 8 7 9 10 11 11 8 8 10 14 18 19 17 14 7 7 4 5 6 8 8 6 6 11 13 13 11 11 11 12 11 16 16 18 25 21 19 20 23 22 20 23 27 26 23 24 23 21 21 21 20 19 17 16 18 21 22 22 22 21 19 18 15 13 13 10 6 5 4 3 4 4 4 4 5 5 3 3 4 5 5 3
8 10 8 8 7 6 9 9 10 13 9 8 10 13 17 18 17 16 10 6 6 6 6 9 9 7 6 10 14 15 13 13 13 12 10 15 12 21 24 18 18 17 19 21 20 20 22 19 21 26 25 22 23 22 21 21 20 20 21 21 23 23 22 20 17 15 12 11 12 11 8 5 4 5 7 7 7 7 8 6 3 3 4 5 4 5
9 10 9 9 10 8 9 10 11 13 10 10 13 13 13 15 15 14 9 6 6 5 5 8 9 7 6 7 10 13 15 13 14 13 12 13 9 24 24 16 14 14 14 17 18 13 12 15 19 27 27 22 22 22 22 23 24 23 22 21 23 22 20 19 16 13 13 13 13 12 10 6 8 11 11 9 8 8 7 5 5 5 5 5 6 7
7 10 11 10 9 8 10 12 13 13 10 11 14 14 10 11 13 11 8 7 6 5 7 7 7 6 6 7 6 9 13 12 12 10 11 15 13 25 27 22 18 16 15 16 14 8 13 20 21 27 30 22 21 22 22 24 25 23 21 21 24 22 19 19 18 18 19 18 15 12 11 11 13 13 11 9 10 9 7 6 7 8 6 5 6 8
5 6 10 9 9 11 12 12 14 15 13 12 12 10 9 8 9 9 7 7 6 5 8 9 9 8 8 7 6 8 9 9 9 10 13 14 14 21 22 23 21 19 17 14 9 8 11 18 21 27 31 24 21 23 23 23 22 21 22 23 24 24 24 23 22 23 24 21 16 14 14 14 15 14 11 10 10 9 9 7 7 6 5 5 6 7
10 5 5 6 11 14 12 10 11 11 11 11 8 6 7 6 6 7 6 6 6 5 8 12 13 11 8 5 4 5 7 10 9 8 9 10 14 16 16 18 20 19 18 14 17 14 16 21 22 27 29 26 25 25 24 24 22 21 23 24 25 29 29 27 26 26 26 22 18 18 17 17 16 14 13 12 10 9 8 7 6 5 5 5 5 4
11 9 8 8 13 15 10 6 6 6 8 9 7 6 7 5 6 6 6 6 6 6 9 11 11 9 6 2 1 1 1 4 7 5 6 11 16 17 15 16 19 19 17 16 21 18 20 22 22 25 26 29 30 29 28 27 25 26 27 27 30 33 30 27 28 28 26 24 21 20 19 18 18 15 13 12 10 9 7 7 7 6 6 4 4 3
8 9 11 11 10 13 11 7 7 7 8 9 7 7 6 5 6 6 6 7 6 7 9 7 5 4 2 3 2 5 5 6 4 9 10 13 17 18 17 16 17 15 12 14 16 17 19 20 23 24 25 30 34 34 33 31 30 31 31 30 31 32 29 28 30 28 26 26 23 21 20 19 18 16 13 11 10 9 8 8 8 7 6 6 6 5
8 8 10 11 8 11 13 11 9 6 8 10 8 8 7 5 5 5 5 5 4 5 6 5 3 2 2 2 3 7 9 9 10 12 13 14 15 16 17 14 13 15 12 11 12 13 16 20 23 26 29 32 37 38 35 33 33 33 32 31 29 29 30 32 32 30 28 27 25 23 21 20 19 16 13 11 10 9 9 8 8 8 8 9 8 7
10 8 9 13 11 12 14 13 13 10 6 7 8 8 7 5 5 4 3 2 1 2 3 4 2 2 4 4 1 4 6 8 9 9 11 13 12 13 15 14 16 19 14 13 14 13 17 21 23 27 29 30 35 36 33 32 31 30 30 30 29 30 32 34 34 32 30 29 27 24 21 20 19 17 14 12 11 11 11 10 10 9 10 10 9 9
8 7 7 14 14 13 14 13 12 11 5 2 7 8 7 8 6 3 2 3 2 3 3 3 2 4 4 5 4 5 4 5 7 7 9 11 11 9 12 18 23 21 17 19 20 21 22 19 21 26 27 28 32 32 30 30 30 30 30 30 31 33 35 36 36 34 31 29 27 24 21 19 19 17 16 14 13 13 13 12 11 11 12 12 10 9
4 6 4 8 13 14 14 13 13 12 8 4 5 4 4 7 6 3 3 2 2 5 5 5 5 4 4 5 7 8 7 6 7 11 12 11 10 10 14 23 25 24 25 25 25 25 22 16 18 24 23 25 29 28 27 27 28 29 29 29 31 34 36 37 35 33 31 29 27 25 22 20 18 17 17 15 14 14 15 14 13 13 13 12 11 9
2 4 6 10 12 13 12 10 11 12 13 10 3 2 2 4 4 3 3 2 3 5 5 7 9 6 2 2 9 11 8 7 11 12 10 8 7 8 14 24 28 28 28 27 26 25 20 17 21 24 22 23 25 25 25 23 23 25 26 28 30 33 35 35 33 31 30 29 27 25 24 21 19 18 17 15 14 15 16 15 14 14 14 13 10 9
1 3 4 8 10 7 9 7 7 7 11 10 5 3 4 3 2 3 2 3 5 4 3 7 7 3 4 4 4 9 11 10 8 8 7 6 6 6 11 18 25 29 31 30 28 26 24 23 25 24 22 21 22 24 24 22 20 22 25 28 29 30 32 31 30 29 28 27 27 25 23 22 20 18 16 15 14 15 16 16 14 15 15 13 10 9
5 2 2 5 9 7 6 7 7 7 7 7 6 7 6 4 4 4 3 4 5 4 4 5 3 3 5 6 4 12 15 10 7 6 5 4 3 5 11 14 16 23 29 29 26 25 26 25 23 22 21 20 20 22 23 21 20 22 24 26 26 26 27 27 27 27 26 26 25 25 24 22 20 17 15 15 15 15 16 16 16 16 15 12 11 9
4 4 3 4 6 7 6 5 8 10 9 8 7 7 7 6 5 4 4 4 4 4 4 2 1 3 3 4 4 10 11 12 13 10 9 10 8 9 16 17 16 19 23 24 24 23 23 24 22 22 22 21 20 21 21 21 23 24 24 25 25 25 24 24 26 26 26 25 25 25 22 20 18 17 16 16 16 16 17 17 17 16 14 13 11 10
2 2 4 5 6 9 10 7 7 10 12 12 9 6 8 8 5 5 4 3 4 4 2 2 2 2 3 2 5 8 9 12 14 12 14 18 18 18 20 19 17 19 22 21 22 21 20 21 22 22 23 21 20 19 19 20 22 23 22 22 24 24 23 23 24 25 25 25 26 25 23 20 18 18 17 16 16 17 18 18 17 14 13 12 11 11
1 2 4 4 4 8 10 9 12 13 9 9 9 5 7 7 6 6 4 1 3 3 2 3 3 3 3 3 6 8 10 13 13 11 12 17 19 18 20 19 17 19 21 19 20 21 20 20 20 21 22 20 18 18 18 19 18 18 18 18 19 21 21 20 20 23 24 24 25 25 24 21 19 19 18 17 17 17 16 17 16 14 13 11 10 11
1 4 4 4 3 5 6 4 7 10 9 6 7 8 9 8 5 3 2 1 2 4 4 4 1 3 3 5 7 7 8 10 12 12 10 11 15 17 18 19 18 19 20 19 19 20 20 19 17 17 18 17 16 14 15 17 16 15 16 17 18 18 17 16 15 17 19 21 23 23 22 20 18 19 19 17 16 15 14 14 15 14 13 11 10 11
2 2 3 5 5 5 5 2 1 4 6 7 10 11 11 13 10 2 4 1 4 4 5 3 2 3 5 9 10 7 7 8 9 10 9 7 11 15 16 18 19 21 21 20 19 19 18 17 16 14 13 14 14 12 14 16 15 14 14 16 17 17 14 13 12 13 15 18 20 21 21 21 20 20 20 19 18 15 13 12 12 12 12 11 10 12
2 2 4 6 6 3 2 2 0 3 5 8 12 13 12 13 13 6 2 2 2 2 2 3 2 7 7 10 10 7 8 9 8 7 9 9 9 11 15 19 20 20 20 19 19 18 17 16 15 14 12 12 12 12 12 14 14 14 14 13 14 15 13 12 11 12 14 15 16 18 19 20 20 20 20 20 20 18 15 14 13 12 12 11 10 11
1 3 6 7 7 6 6 5 2 3 5 10 14 13 14 16 15 9 6 4 2 3 2 1 3 9 8 9 10 8 7 7 5 5 7 7 9 10 14 20 20 19 20 20 19 18 17 16 15 14 13 11 11 11 11 12 13 14 14 12 12 12 11 11 11 11 12 12 12 13 15 16 16 17 17 18 19 18 16 16 16 14 12 11 10 11
3 5 7 7 9 9 8 7 4 4 5 8 12 13 12 14 16 13 8 6 6 3 4 6 8 11 10 10 11 10 7 7 8 9 5 5 10 14 17 20 21 21 21 20 20 20 19 17 15 14 13 12 10 10 10 10 10 12 12 11 10 9 9 10 10 9 9 9 9 9 9 10 10 11 13 14 15 15 15 16 17 17 16 14 14 14
4 3 3 6 8 9 8 7 6 6 6 7 8 9 11 11 12 13 13 11 6 4 10 13 13 12 10 10 11 10 10 12 13 14 11 7 7 13 20 23 23 24 23 21 21 22 21 20 18 15 14 13 12 12 12 12 10 10 11 11 10 8 8 8 8 8 8 7 8 9 8 8 8 8 10 11 11 13 15 16 17 19 20 19 19 20
4 1 1 3 5 6 6 5 5 5 6 8 10 7 5 9 10 10 11 13 8 6 13 15 14 11 8 11 14 15 17 19 20 21 22 20 18 18 22 26 25 24 24 23 23 23 23 22 21 19 17 15 14 13 13 13 13 12 12 11 10 10 9 8 7 8 8 6 6 7 6 6 7 7 7 7 8 10 14 15 16 18 19 19 20 20
5 1 2 4 5 4 5 4 4 3 3 6 9 11 5 4 8 7 8 7 4 4 10 11 9 7 7 12 15 18 20 21 21 21 22 24 24 23 26 28 27 26 26 25 24 25 25 24 22 21 20 18 17 15 14 14 14 14 13 12 9 9 10 9 8 7 8 7 7 7 7 6 6 6 6 6 6 7 10 12 12 13 15 17 18 18
5 3 2 5 5 4 5 5 4 3 2 3 4 7 7 4 2 4 7 8 4 1 3 4 7 8 9 12 13 15 17 18 19 20 19 22 25 26 26 26 26 27 27 26 27 26 26 25 24 23 22 21 20 19 16 15 15 14 13 13 11 9 10 10 8 7 8 8 7 7 7 7 6 5 5 5 5 6 7 7 7 8 9 11 12 13
3 3 2 3 3 2 1 3 4 4 3 1 4 6 3 5 6 7 7 8 7 5 4 7 10 10 10 12 12 13 14 15 18 20 19 22 27 28 26 24 25 26 27 27 26 26 25 25 24 23 22 21 20 19 18 17 16 14 13 14 13 11 10 10 9 9 10 9 7 7 7 7 6 5 4 4 3 4 5 6 8 8 8 8 8 9
2 2 1 3 2 1 2 2 4 4 1 1 5 6 6 8 10 11 9 7 7 9 10 12 12 11 13 15 15 17 19 20 23 24 22 22 25 26 26 24 23 23 22 22 21 21 20 20 20 21 20 19 19 20 19 18 19 18 14 13 12 10 10 10 9 10 10 9 8 7 7 6 5 5 5 4 2 1 1 3 5 6 7 8 8 8
2 1 2 2 1 1 3 4 3 2 3 2 3 5 7 8 9 8 7 5 5 6 9 12 13 15 17 18 18 20 23 25 26 24 21 21 22 23 25 24 22 21 20 19 17 15 13 12 13 14 15 14 14 15 17 17 17 17 16 15 16 14 12 11 11 11 10 10 10 8 7 7 5 4 4 2 1 1 1 2 4 5 5 6 6 7
5 2 1 1 1 2 2 3 2 3 4 3 4 4 5 4 2 2 3 5 6 9 11 13 13 14 16 17 16 17 19 20 18 15 15 17 17 19 21 21 19 19 19 17 15 14 11 9 8 8 9 8 8 8 9 10 10 11 12 14 17 17 14 10 12 14 13 10 10 10 9 7 6 5 3 2 2 3 2 2 3 4 5 5 5 6
5 5 2 1 1 0 1 2 1 1 1 2 6 7 6 6 6 3 3 6 7 11 14 13 12 13 14 16 15 15 13 11 8 6 10 15 16 16 17 16 15 13 12 12 13 13 12 10 8 8 7 7 4 3 4 6 6 5 5 6 7 10 10 7 7 11 13 11 10 11 10 9 8 5 3 2 2 4 3 3 4 5 5 7 7 7
3 6 4 4 2 3 2 1 2 0 0 2 6 8 10 12 11 4 2 4 6 14 17 15 14 14 14 16 16 13 9 6 5 7 10 13 14 16 16 15 14 13 12 11 11 12 12 11 10 10 10 10 9 7 6 8 9 7 4 3 3 5 9 8 6 7 10 10 9 9 9 9 9 8 6 5 5 5 4 5 6 6 7 9 10 10
0 2 3 5 3 3 3 2 0 2 2 3 5 6 9 13 11 5 3 3 6 14 18 16 15 16 17 17 13 7 5 6 9 13 14 14 13 14 14 12 12 13 11 10 9 9 9 8 7 7 8 9 9 9 8 8 8 8 7 6 6 6 7 8 8 10 11 12 13 11 9 8 8 9 8 9 10 10 9 9 9 8 8 10 11 11
2 3 3 4 3 3 2 0 2 3 2 6 7 5 7 9 5 0 2 2 6 13 18 18 15 12 13 13 8 7 10 14 16 17 16 15 13 12 12 11 10 11 9 7 8 9 7 5 5 5 5 4 5 6 6 7 7 7 6 6 5 4 7 10 10 11 12 14 16 14 11 9 10 11 12 13 15 16 16 14 13 12 10 10 12 13
4 4 4 3 3 3 1 2 3 3 2 7 6 5 7 5 1 2 1 3 10 16 20 23 22 18 17 16 15 16 18 19 18 17 15 13 12 11 11 10 9 9 8 7 6 7 8 6 4 4 4 4 3 3 4 6 6 6 6 5 5 8 12 14 15 15 16 15 15 15 15 16 17 18 18 19 20 20 20 18 17 16 14 13 13 14
4 4 2 3 4 4 1 2 3 3 3 8 6 4 7 4 3 4 5 10 15 14 14 18 19 19 19 19 18 18 18 17 16 15 13 11 10 9 9 9 8 7 7 7 4 4 7 6 4 4 5 5 5 6 7 6 5 6 7 7 9 12 15 15 16 18 18 18 18 18 19 19 19 19 20 20 19 20 21 22 21 21 20 18 17 16
5 5 2 4 4 4 2 3 3 3 5 8 5 5 6 9 9 11 13 15 16 15 14 15 16 15 16 18 17 16 15 15 14 13 11 10 9 8 7 7 6 5 6 5 3 4 6 5 5 6 6 6 7 8 9 8 7 8 9 10 11 13 14 15 16 17 19 20 21 22 22 20 19 17 17 17 17 18 19 20 21 22 23 22 21 20
6 5 4 5 5 5 5 6 6 7 9 11 12 13 14 15 15 17 18 16 14 14 15 16 16 14 13 14 14 13 13 13 11 11 11 9 9 8 6 6 5 6 6 4 4 5 6 5 5 6 6 7 7 8 8 8 8 9 9 10 11 11 12 13 14 15 16 17 18 19 20 20 20 19 18 17 17 17 18 19 20 21 21 21 22 23
6 5 4 5 6 8 9 9 9 11 11 12 15 19 21 18 16 18 19 18 16 15 15 15 13 11 9 10 11 10 10 10 10 10 9 9 8 8 7 7 6 6 6 4 4 6 6 5 5 6 6 7 7 7 7 7 7 8 8 9 11 11 12 13 14 14 14 15 15 15 16 17 18 19 19 19 18 18 18 19 20 21 21 22 22 23
6 4 3 4 3 2 5 8 9 10 10 9 11 15 17 17 16 17 18 17 16 16 15 14 11 9 8 8 9 9 9 8 8 8 8 7 7 7 7 6 6 6 5 5 5 7 6 5 5 6 6 6 6 7 7 7 8 9 10 11 12 12 13 13 14 15 15 15 16 16 16 17 17 18 19 18 18 18 18 19 19 20 21 22 23 24
4 6 3 5 3 2 6 10 10 10 10 8 8 9 11 13 14 15 16 16 15 14 14 12 10 8 8 7 8 9 8 7 7 6 6 6 7 6 6 6 5 5 5 5 5 5 5 4 5 5 5 5 5 6 7 8 9 10 11 12 12 13 14 14 14 15 15 16 17 17 17 17 17 17 18 18 17 18 19 19 20 21 21 21 21 22
5 6 3 5 6 5 7 10 10 10 9 9 10 10 9 10 11 13 13 14 13 13 12 11 9 8 7 7 7 7 8 8 7 5 5 6 6 5 5 5 4 4 4 5 5 5 5 4 4 5 5 5 5 6 8 9 10 10 11 12 13 13 14 13 14 15 14 15 15 15 15 16 16 16 17 17 18 19 19 18 18 20 22 23 23 23
5 5 5 3 3 3 6 8 7 5 6 8 11 11 10 10 11 12 12 11 10 10 9 8 8 9 8 7 6 6 7 7 7 6 5 5 5 4 4 4 3 4 4 4 4 4 5 4 4 4 5 4 5 7 8 9 10 11 12 13 13 13 12 12 12 12 12 13 13 13 14 15 16 16 17 18 19 20 21 22 21 19 19 20 24 28
8 7 6 4 3 5 7 6 4 5 8 11 11 10 10 9 9 10 9 9 8 7 6 6 7 8 8 7 6 6 6 6 5 5 5 4 4 3 3 2 2 2 3 3 3 3 4 4 4 4 4 5 6 8 9 10 11 13 13 14 14 12 11 11 11 11 11 12 12 14 15 16 17 18 18 19 19 20 22 24 25 25 22 19 20 25
Wind_Direction
204 207 219 220 225 224 222 230 238 239 243 263 286 269 228 226 239 230 239 210 175 187 202 209 221 211 226 241 219 173 169 220 224 193 229 206 153 156 158 159 172 174 180 181 178 176 162 160 177 187 179 174 177 172 171 175 171 160 152 157 160 156 149 135 127 125 125 124 120 113 114 121 127 138 132 132 157 165 151 135 123 118 132 144 129 123
208 221 227 223 230 233 226 225 239 252 258 270 289 288 246 217 235 235 232 209 172 184 206 199 223 220 213 234 223 188 179 206 223 203 225 222 192 184 166 163 174 171 175 176 173 177 166 172 187 185 173 173 174 166 165 172 169 161 155 155 155 153 144 131 129 128 121 117 117 114 115 121 126 132 140 171 186 192 183 162 163 152 128 117 123 121
211 228 234 231 231 239 240 227 230 247 259 270 272 280 271 217 225 234 228 218 171 172 219 194 210 229 223 229 225 211 187 185 202 207 225 224 213 213 176 161 172 173 171 168 162 171 174 177 184 180 171 172 174 164 161 167 164 160 157 153 152 148 139 133 135 134 126 124 125 116 108 110 118 136 159 190 177 161 149 140 159 144 113 94 88 78
209 224 228 234 233 231 237 241 250 248 244 263 260 257 278 253 233 231 205 190 139 148 247 224 223 227 231 234 219 228 222 186 185 204 226 223 218 225 177 159 172 172 156 151 161 178 178 174 180 180 168 169 172 160 157 163 158 151 150 152 151 143 137 135 135 135 132 132 128 121 126 144 162 174 177 174 140 114 104 110 139 138 120 116 113 101
225 226 215 222 229 224 221 231 254 262 240 243 251 248 264 266 249 221 160 155 139 156 212 252 259 237 231 232 203 228 241 200 178 202 222 222 220 205 156 157 165 154 140 146 174 189 180 170 179 176 161 165 166 154 156 159 147 142 147 151 148 142 140 139 139 138 137 137 134 136 154 168 184 194 174 144 128 112 109 144 163 122 114 113 121 127
234 238 222 221 219 204 208 226 225 235 254 241 238 243 256 270 269 247 183 167 195 192 178 208 242 242 234 236 220 226 232 193 181 209 216 221 216 155 134 144 139 137 149 163 188 194 179 168 171 167 157 159 157 151 154 150 144 149 150 147 145 144 145 145 145 143 142 144 140 142 162 178 194 189 147 137 131 112 138 194 117 122 129 120 124 135
242 241 239 227 195 174 213 232 225 222 238 248 230 226 244 260 272 273 230 166 210 230 194 201 229 246 226 228 230 225 216 190 197 217 209 222 215 145 133 136 123 136 158 175 197 194 181 171 162 158 155 154 153 152 152 148 156 160 145 142 146 147 148 149 148 144 145 144 136 136 154 172 172 160 165 175 157 157 198 203 179 168 147 131 135 111
238 228 220 227 207 199 223 228 222 217 221 248 238 216 225 242 256 267 258 207 218 233 210 203 219 246 236 224 217 213 215 199 200 211 199 228 212 134 130 130 129 152 170 187 208 201 188 174 155 154 154 153 153 154 155 152 158 156 144 146 152 151 153 152 145 146 153 147 141 142 141 149 171 199 210 192 179 198 205 195 163 132 110 119 120 88
217 214 193 215 224 221 232 233 222 217 221 237 247 243 224 222 236 249 252 238 229 230 228 211 214 237 248 239 212 205 216 203 202 206 195 226 191 126 128 130 141 176 191 207 220 205 158 116 126 149 153 153 152 155 160 153 152 155 152 154 156 155 160 159 151 160 172 166 162 153 144 175 211 218 220 202 196 203 187 153 132 145 154 147 132 121
212 217 206 206 221 231 229 231 224 216 227 235 245 266 256 218 225 236 240 238 226 227 239 223 214 236 249 235 201 205 218 204 202 206 200 213 171 131 138 148 156 176 196 212 213 180 121 98 108 140 149 152 151 154 159 153 154 160 162 163 161 158 165 170 167 172 180 177 175 162 160 197 219 223 221 206 203 193 167 159 173 183 175 155 153 151
231 229 232 215 213 233 228 229 227 214 219 232 234 252 257 230 223 225 228 238 237 231 239 229 209 221 251 233 197 212 217 195 199 208 204 196 151 132 143 152 153 162 183 186 144 118 124 116 116 132 146 155 154 158 163 161 163 164 163 164 168 172 178 183 176 172 176 178 178 171 177 204 219 219 209 201 204 188 170 179 185 181 163 171 194 185
234 223 246 237 226 234 234 236 234 214 211 224 226 234 241 229 220 224 221 226 236 230 238 239 220 216 241 240 203 213 197 186 204 210 189 154 130 140 152 147 148 166 183 150 104 99 120 130 129 128 142 159 166 169 168 166 168 166 162 161 168 177 181 182 175 168 172 175 177 178 187 208 216 212 205 204 203 185 175 174 165 171 179 197 218 209
229 222 213 224 233 237 241 237 220 215 223 223 215 222 235 224 210 223 220 215 229 228 229 238 236 229 228 219 123 145 145 210 202 169 136 128 132 149 154 144 149 173 181 131 107 113 124 138 143 133 143 161 170 177 176 175 175 173 170 164 166 173 176 180 176 169 172 177 180 184 193 208 210 207 206 204 195 180 180 173 171 190 192 194 213 201
218 230 220 213 221 227 235 237 204 197 214 226 227 219 221 222 218 222 220 219 226 228 225 224 244 247 178 87 111 131 63 24 109 120 126 140 139 140 142 142 144 155 159 130 119 123 129 143 150 152 162 166 170 181 184 182 180 178 175 169 170 175 177 182 180 174 175 180 184 187 193 200 201 200 198 196 191 181 185 184 180 189 188 198 214 199
215 225 216 209 203 197 212 237 238 216 202 210 226 234 226 215 222 228 228 236 241 237 228 202 209 247 156 102 72 106 89 61 76 86 100 129 140 136 137 141 129 118 124 138 131 127 141 150 153 164 172 170 173 179 180 180 178 177 173 170 173 175 176 181 183 180 180 183 186 187 190 191 192 193 186 188 192 182 190 192 178 185 198 209 217 199
231 232 198 201 210 195 200 228 248 249 227 205 213 230 234 214 213 226 229 243 317 296 260 214 204 76 128 172 121 100 104 94 94 92 99 120 134 138 145 138 108 101 119 147 149 160 168 157 150 159 164 168 175 175 174 176 177 177 175 173 175 176 178 183 185 184 183 183 184 184 187 186 186 186 178 184 195 188 190 187 176 192 206 211 215 205
236 249 196 190 204 207 205 214 233 240 242 230 221 222 222 215 207 204 219 194 169 250 246 191 136 92 132 190 176 149 146 120 117 110 96 101 102 103 125 117 100 106 137 151 151 165 174 160 145 150 157 165 169 169 170 173 175 179 178 175 176 178 181 185 187 186 183 181 182 182 182 182 184 182 176 185 197 192 188 183 182 196 203 211 218 209
243 267 259 213 210 207 207 213 224 228 224 222 233 249 255 227 203 181 221 205 212 252 231 170 163 168 199 200 159 164 182 156 103 78 75 90 94 70 84 102 106 121 139 142 144 158 178 180 154 150 158 162 163 164 165 169 175 179 177 174 175 179 183 185 185 184 181 179 181 182 179 179 183 182 179 188 196 194 188 183 187 196 201 212 216 205
230 265 287 277 245 201 195 220 226 221 224 229 237 355 309 233 209 208 218 190 209 243 244 210 198 190 237 199 162 170 165 115 81 75 77 81 88 72 86 110 122 127 133 140 148 158 172 176 163 161 162 156 160 164 159 162 174 179 179 178 178 183 185 183 183 183 181 179 180 183 180 178 181 182 184 190 192 194 190 184 188 196 202 210 209 199
163 261 253 279 277 213 185 217 234 219 224 235 244 226 200 180 218 252 256 245 228 222 234 233 216 154 7 338 150 135 111 93 76 81 88 65 55 66 86 109 122 129 136 144 149 152 153 157 163 166 161 152 158 163 154 156 174 182 183 180 182 186 184 182 183 182 183 184 183 181 178 178 180 183 188 191 191 195 192 186 189 196 203 205 200 196
172 196 221 281 293 267 212 204 219 231 228 227 233 234 227 196 193 208 225 252 254 246 238 238 222 74 14 349 68 105 107 119 117 94 98 92 63 85 101 112 130 141 146 147 145 146 147 152 159 161 157 151 149 150 148 154 172 180 179 176 176 177 176 179 182 181 184 186 185 183 180 180 183 185 189 192 195 196 191 190 194 199 203 198 193 191
173 174 205 258 268 263 253 217 216 235 241 234 220 220 233 225 204 213 225 231 247 258 266 262 151 97 36 11 77 105 115 133 138 137 143 147 163 166 146 144 152 147 141 137 136 138 140 142 145 148 154 153 145 141 144 154 167 171 171 171 171 170 173 178 180 180 182 184 187 187 185 185 186 187 190 195 198 195 193 196 197 201 202 192 186 183
54 183 198 225 242 258 276 299 287 265 253 248 242 230 237 231 212 216 222 230 248 249 263 266 202 111 83 102 111 107 110 118 125 136 142 145 160 167 152 150 158 147 136 134 133 133 134 136 139 141 146 151 149 143 144 155 165 167 167 170 174 177 178 177 178 179 181 185 187 187 187 190 189 188 191 200 200 196 202 204 199 203 201 190 184 175
69 246 213 218 244 257 273 311 309 293 281 262 254 252 255 248 229 228 227 210 233 225 223 246 216 120 108 126 114 112 121 122 121 125 128 132 138 139 138 145 152 140 133 135 135 133 133 135 138 139 138 142 145 143 148 156 161 163 165 167 174 181 181 177 176 177 180 185 185 184 188 190 188 187 191 201 199 196 208 208 201 206 197 182 183 173
183 247 228 236 257 237 243 304 315 311 328 315 282 269 260 253 241 246 337 350 256 252 249 248 174 107 124 123 111 111 122 125 123 121 116 116 118 119 126 133 130 121 120 126 129 130 131 133 137 136 133 136 140 145 155 157 155 158 163 164 168 175 177 175 174 176 178 180 181 184 186 185 186 185 187 193 191 193 209 205 200 208 194 177 181 175
197 227 206 235 253 241 236 239 321 337 342 326 311 301 280 263 252 224 59 337 266 280 274 272 80 121 137 128 124 118 100 84 84 97 96 91 106 114 119 118 112 112 116 119 123 125 128 133 133 129 129 136 142 149 155 152 151 157 162 167 170 170 172 176 184 186 180 176 177 182 184 185 188 185 184 186 183 184 199 196 195 204 192 181 187 180
192 189 212 232 239 236 215 199 180 1 348 336 332 332 329 309 285 258 174 203 213 199 281 313 141 150 138 120 118 106 85 69 46 55 73 74 87 107 115 110 103 106 110 111 115 119 122 125 125 126 132 140 143 146 152 153 153 156 158 163 167 166 165 167 178 186 181 175 174 176 180 183 185 185 186 186 183 184 189 187 192 201 189 182 192 191
170 206 213 225 231 212 181 175 194 311 332 345 345 342 351 352 336 302 250 241 252 210 213 314 130 127 108 101 110 110 106 101 86 67 77 108 135 126 111 105 102 103 103 101 101 102 102 106 111 117 121 127 135 139 144 150 148 145 145 147 151 156 156 157 169 179 176 172 169 174 182 183 185 189 188 186 187 190 191 187 187 192 189 188 196 203
228 225 193 206 234 232 208 192 212 253 291 334 340 341 356 11 9 353 318 296 292 253 148 115 113 108 97 95 100 106 119 118 113 115 126 172 155 128 109 101 98 95 92 90 88 85 85 89 95 101 102 103 111 114 114 117 120 124 128 128 131 136 140 147 161 164 156 154 157 166 177 175 175 184 185 185 190 193 196 194 188 185 187 191 197 204
252 233 188 208 225 230 219 206 222 248 258 270 290 328 3 21 26 17 1 353 359 99 123 119 108 100 101 98 85 82 92 88 79 83 79 39 52 91 97 95 92 89 85 82 78 75 74 75 75 77 80 82 83 85 85 83 83 91 97 100 105 108 110 118 128 128 127 137 149 154 158 158 162 175 183 187 190 190 193 195 195 193 192 195 201 204
302 344 357 252 230 221 207 198 213 239 247 240 241 263 344 19 25 30 19 359 357 94 119 117 107 98 95 87 71 60 69 76 68 64 67 63 57 66 78 81 81 79 77 75 74 73 71 69 66 65 65 67 69 70 73 76 75 71 72 81 92 91 92 98 97 97 98 99 113 122 121 128 146 161 169 174 180 185 191 196 204 209 208 212 217 214
293 233 169 230 243 222 191 189 196 204 239 243 238 243 251 27 29 41 44 3 321 136 121 113 111 114 98 79 65 54 57 68 72 67 66 68 67 67 71 71 68 66 66 67 69 70 67 65 66 68 67 65 66 65 63 66 67 63 62 69 70 68 78 93 100 102 102 95 94 102 104 107 125 143 148 156 167 177 188 200 212 220 222 225 229 228
306 317 234 226 236 216 178 174 182 186 220 235 258 264 242 200 145 70 51 30 16 141 152 119 113 113 99 83 70 60 56 60 68 71 69 68 69 69 68 66 64 65 65 66 67 66 64 63 62 64 67 66 67 70 69 67 63 55 57 68 69 62 66 74 80 84 88 89 90 94 100 101 105 117 131 147 163 171 183 197 210 217 223 230 234 236
315 2 340 257 245 287 29 127 175 213 218 222 331 326 264 181 141 98 66 39 45 62 68 94 110 111 98 89 84 77 68 64 70 76 78 79 78 76 72 69 69 71 70 68 67 64 62 62 59 60 63 61 63 70 76 81 79 66 56 59 63 67 72 72 69 67 70 74 75 76 78 82 85 82 83 110 143 167 186 198 204 208 219 235 243 246
208 178 275 277 254 23 40 133 192 216 197 12 341 2 60 105 107 93 75 49 64 92 104 107 111 106 94 93 96 94 89 84 82 83 85 87 88 87 84 81 80 82 79 76 73 69 66 62 57 57 57 56 59 63 64 70 75 75 75 68 62 66 73 73 69 63 60 61 60 65 70 73 86 91 78 78 94 98 203 225 229 225 228 236 244 250
162 203 246 264 272 153 183 197 196 152 106 69 23 39 73 100 110 97 81 65 58 79 105 111 105 97 97 100 103 103 98 88 79 76 79 86 91 92 91 88 88 91 89 85 84 81 79 75 66 59 58 62 69 66 59 58 57 60 71 75 72 68 62 62 65 54 43 45 42 38 44 50 59 75 72 64 58 38 334 284 282 272 259 252 250 253
122 103 232 219 333 302 233 209 169 131 129 102 63 58 71 78 55 33 108 122 96 79 91 103 102 102 108 112 114 114 103 87 74 68 71 77 84 89 89 87 88 90 88 87 85 77 76 85 87 74 63 71 90 87 71 65 56 55 65 69 66 60 49 52 63 46 27 25 27 20 24 34 36 38 42 34 9 347 301 272 281 280 276 269 261 259
138 123 139 195 169 300 286 267 246 163 157 61 40 28 22 20 1 357 109 120 113 108 109 109 109 116 122 125 130 128 107 85 76 85 85 80 78 80 80 76 74 78 80 80 76 66 60 60 59 54 43 34 49 75 55 34 29 48 78 76 61 47 34 35 54 36 15 4 3 5 9 12 10 3 353 343 336 316 291 274 270 268 272 270 261 258
171 134 160 216 194 142 148 243 273 289 292 27 32 15 360 356 346 328 148 131 124 123 121 119 123 131 135 142 148 145 121 94 104 126 119 103 87 80 79 74 68 67 66 65 64 54 48 49 44 35 26 19 16 16 10 2 357 356 6 8 350 359 1 351 333 334 339 335 332 339 353 357 347 329 310 291 279 273 269 270 268 270 278 273 263 259
256 129 210 238 231 186 186 216 250 107 85 13 12 13 358 346 330 296 185 143 132 135 134 133 137 145 152 158 163 161 135 120 123 128 126 117 102 90 88 88 84 80 74 75 83 73 56 57 60 42 26 17 10 6 1 351 345 342 336 330 334 341 338 323 306 302 302 296 295 306 324 330 317 304 294 282 272 265 261 261 260 261 269 271 263 255
345 342 294 259 246 244 226 214 58 100 63 348 352 7 347 331 325 344 143 119 116 122 116 104 100 114 134 144 137 99 101 114 122 126 121 112 107 102 97 96 94 89 84 81 92 96 88 78 79 69 49 25 11 8 354 336 337 340 324 315 322 303 272 267 271 277 280 283 289 295 294 283 277 277 278 279 280 279 276 273 268 261 258 263 265 256
348 344 331 327 318 301 211 127 94 96 340 313 327 11 351 326 144 124 155 99 92 96 95 87 82 83 88 91 87 90 103 113 119 124 121 112 108 104 98 96 91 86 86 74 63 82 93 86 73 70 62 38 10 344 322 322 332 329 308 291 275 262 261 265 270 273 275 282 286 284 276 271 271 273 275 280 284 286 286 283 277 270 261 257 260 258
15 342 351 30 356 324 354 100 102 97 353 322 324 17 15 17 102 109 90 81 77 83 92 88 86 91 92 88 86 92 104 112 113 112 111 107 103 97 95 96 91 83 84 75 45 54 79 74 39 37 43 25 356 335 326 330 328 308 295 289 280 277 279 282 284 283 282 281 280 279 280 282 285 286 286 286 285 285 285 284 282 278 271 263 259 258
20 343 2 52 5 329 21 61 81 93 42 21 39 79 58 48 60 69 73 71 69 74 80 73 73 86 97 98 97 98 102 108 110 109 110 109 105 99 92 88 83 77 77 65 14 29 58 45 15 27 31 12 359 352 346 347 340 328 326 322 311 306 306 306 304 300 295 290 286 285 285 285 285 285 285 284 282 279 278 280 280 279 275 268 261 258
37 37 58 62 42 41 75 95 95 87 76 70 76 81 75 70 73 75 73 71 72 77 77 70 66 73 86 97 101 103 106 109 113 116 118 115 109 103 96 87 76 71 71 47 351 16 51 43 30 36 26 14 16 12 7 6 357 350 348 339 328 325 324 321 317 313 309 307 304 299 296 292 286 279 275 274 275 274 272 273 273 273 272 270 265 262
56 53 73 90 89 79 83 97 98 89 85 77 72 71 71 74 82 84 80 78 80 84 87 84 79 79 92 104 103 100 104 109 110 113 115 114 114 113 108 102 95 87 86 68 17 32 57 53 41 39 27 24 27 21 15 11 360 350 339 329 328 327 321 317 314 310 310 310 307 304 303 303 299 294 287 280 275 271 270 272 272 271 269 268 267 266
50 2 37 101 126 111 99 106 105 100 95 84 74 73 72 73 78 83 84 85 85 87 90 91 89 89 97 109 111 107 107 109 110 114 115 113 112 112 108 103 100 95 90 71 42 49 63 57 44 42 37 31 26 19 16 8 357 351 339 330 327 322 316 313 309 305 306 305 303 302 303 303 303 303 300 297 290 281 274 272 273 272 272 271 270 268
2 320 1 80 77 77 112 119 118 118 117 111 102 91 83 81 83 86 89 92 91 90 91 92 95 96 93 99 108 109 104 100 98 103 110 112 110 106 102 100 100 96 87 71 59 63 69 62 54 48 41 35 26 20 14 2 352 347 337 331 327 319 315 311 305 303 306 306 305 306 306 305 303 300 301 302 300 294 288 283 279 274 270 269 271 273
312 311 12 83 94 95 113 125 130 132 127 116 110 106 99 95 96 96 96 94 90 90 91 90 94 100 100 101 107 109 104 95 86 84 96 104 102 97 99 103 104 99 90 80 75 74 69 60 57 49 40 35 26 15 5 356 350 345 338 332 327 321 317 311 304 304 307 306 308 309 308 306 306 303 298 295 292 288 282 279 281 281 274 266 264 268
3 359 21 73 122 125 131 137 135 128 125 122 118 118 123 124 115 105 101 100 98 97 99 106 112 112 106 98 95 99 97 87 79 79 84 88 92 95 100 105 105 98 93 85 76 68 57 46 43 40 33 29 17 6 359 352 348 346 340 334 330 326 321 315 311 310 309 308 309 307 302 302 306 306 301 296 294 291 280 267 261 265 273 271 264 262
44 31 22 31 69 90 109 121 106 103 126 132 126 123 129 135 126 112 105 109 114 110 107 124 137 127 114 107 102 95 87 75 69 71 68 68 81 87 81 86 94 97 96 88 74 60 47 36 31 29 24 18 8 360 355 353 350 345 339 334 332 331 327 322 318 315 311 311 310 304 300 300 304 307 304 298 292 291 290 282 267 256 255 263 270 268